Location: Arbon
(43.0005°N, 0.7472°E)
Time: 03:06:45
(UTC+00:00)

ADEOS II - Pass Details

Date: 07 August 2020
Orbit: 799 x 801 km, 98.5° (Epoch: 27 September)

Event Time Altitude Azimuth Distance (km) Brightness Sun altitude
Rises 03:59:33 0° 356° (N) 3,321 5.7 -9.7°
Reaches altitude 10° 04:02:58 10° 333° (NNW) 2,384 4.6 -9.2°
Maximum altitude 04:05:40 14° 302° (WNW) 2,088 4.0 -8.7°
Drops below altitude 10° 04:08:22 10° 270° (W) 2,376 4.0 -8.3°
Enters shadow 04:09:18 - 262° (W) 2,586 4.2 -8.2°
